Retour au catalogue

STARLINK-32794

ActifCommunicationsVLEO
NORAD 62844·PAYLOAD·🇺🇸 United States

Lancé Jan 27, 2025 depuis Cape Canaveral Space Force Station

Loading…

Prochains Passages (prochaines 24 heures)

TLE

FraisSource: CelesTrak SupGP

Époque: Sep 15, 2026, 03:03 UTC

1 62844C 25019R   26258.12756944  .00014498  00000+0  52499-3 0  2587
2 62844  43.0028  99.4086 0001812 273.2126 309.1363 15.27578360    14

Suivez STARLINK-32794 en temps réel avec AllMySat

Download on the App Store